Regional Weather Roundup
Issued by NWS Green Bay, WI

Home | Current Version | Previous Version | Graphics & Text | Print | Product List | Glossary Off
Versions: 1 2 3 4 5 6 7 8 9 10 11 12 13 14 15 16 17 18 19 20 21 22 23 24 25 26 27 28 29 30 31 32 33 34 35 36 37 38 39 40 41 42 43 44 45 46 47 48 49 50

000
ASUS43 KGRB 031311
RWRGRB

NORTH-CENTRAL AND NORTHEAST WISCONSIN REGIONAL WEATHER ROUNDUP
NATIONAL WEATHER SERVICE GREEN BAY WI
800 AM CDT TUE MAY 03 2016

WIZ005-009-010>012-018-019-031400-
NORTH CENTRAL WISCONSIN

CITY           SKY/WX    TMP DP  RH WIND       PRES   REMARKS
IRONWOOD         N/A     54  34  47 W12G17    29.76F
MANITOWISH WTR FAIR      47  35  63 SW7       29.82F
ARBOR VITAE    FAIR      52  34  51 W9        29.83F
EAGLE RIVER    FAIR      47  33  56 W10       29.83F
LAND O LAKES   FAIR      52  32  46 W8        29.82F
RHINELANDER    FAIR      48  35  60 W9        29.86F
PHILLIPS       FAIR      48  36  61 SW6       29.85F
ANTIGO         FAIR      49  36  62 W7        29.87F
TOMAHAWK       FAIR      49  34  55 W6        29.87F
MERRILL        FAIR      48  36  62 W8        29.88F
$$

WIZ013-073-031400-
NORTHEAST WISCONSIN

CITY           SKY/WX    TMP DP  RH WIND       PRES   REMARKS
IRON MOUNTAIN  FAIR      52  33  48 W6        29.80F
MARINETTE      FAIR      48  36  61 W6        29.84F
OCONTO         FAIR      53  38  56 W7        29.85F
$$

WIZ017-030-035>037-045-031400-
CENTRAL WISCONSIN

CITY           SKY/WX    TMP DP  RH WIND       PRES   REMARKS
MEDFORD        FAIR      49  37  63 W5        29.89F
WAUSAU         FAIR      54  37  52 NW10      29.88S
MOSINEE        SUNNY     50  37  62 W8        29.91S
MARSHFIELD     FAIR      51  38  60 W9        29.90F
WISC RAPIDS    FAIR      51  38  60 W6        29.93F
STEVENS POINT  FAIR      49  36  60 W5        29.91S
WAUPACA        FAIR      55  39  54 W7        29.90F
SHAWANO        FAIR      53  37  56 W6        29.88F
CLINTONVILLE   FAIR      52  36  54 W9        29.88F
WAUTOMA        FAIR      54  41  61 W7        29.92
$$

WIZ038-039-048-051-031400-
FOX VALLEY

CITY           SKY/WX    TMP DP  RH WIND       PRES   REMARKS
NWS GREEN BAY  FAIR      53  39  59 SW6       29.88F
APPLETON       MOSUNNY   50  36  57 W12       29.89S
OSHKOSH        FAIR      53  39  59 W8        29.91S
FOND DU LAC    FAIR      52  39  61 W7        29.92F
$$

WIZ022-050-052-031400-
EAST CENTRAL WISCONSIN

CITY           SKY/WX    TMP DP  RH WIND       PRES   REMARKS
EPHRAIM        FAIR      51  38  63 SW9G17    29.84F
STURGEON BAY   FAIR      54  37  54 W13       29.88F
MANITOWOC      FAIR      54  37  52 W12       29.89F
SHEBOYGAN      FAIR      55  40  56 W7        29.91F
$$

LMZ563-521-522-541>543-031400-
LAKESHORE

STATION/POSITION TIME  TEMP    WIND        PRES    VSBY  WAVE
                       AIR SEA DIR/SP/G                  HT/PER
                 (UTC) (F)     (DEG/KT/KT) (MB)    (MI)  (FT/S)
SHEBOYGAN LKSHOR 1300   54     260/ 10/ 13 1013.0F
KEWAUNEE LKSHORE 1200   49     290/  5/  8 1011.3F
ALGOMA MARINA    1215          270/  7/  8   N/A
NORTHPORT PIER   1200   51     270/  1/  7 1010.8S
N MID LAKE BUOY  1250   41 38  200/ 12/ 12 1010.5F         1/ 3
CHAMBERS ISLAND  1200   48     200/  6/ 11 1011.2S
MENOMINEE LKSHOR 1200   48     230/  9/ 12 1010.1F
$$




USA.gov is the U.S. government's official web portal to all federal, state and local government web resources and services.